Time,TemperatureF,DewpointF,PressureIn,WindDirection,WindDirectionDegrees,WindSpeedMPH,WindSpeedGustMPH,Humidity,HourlyPrecipIn,Conditions,Clouds,dailyrainin,SoftwareType,DateUTC
2013-02-16 00:00:00,44.0,43.0,29.93,NW,320,13.0,-999.0,98,-99.99,,,-99.99,,2013-02-16 05:00:00,
2013-02-16 00:21:00,44.0,43.0,29.93,NW,320,13.0,-999.0,98,-99.99,,,-99.99,,2013-02-16 05:21:00,
2013-02-16 00:31:00,44.0,43.0,29.93,NW,320,13.0,-999.0,98,-99.99,,,-99.99,,2013-02-16 05:31:00,
2013-02-16 00:42:00,44.0,43.0,29.93,NW,320,13.0,-999.0,98,-99.99,,,-99.99,,2013-02-16 05:42:00,
2013-02-16 00:52:00,44.0,43.0,29.93,NW,320,13.0,-999.0,98,-99.99,,,-99.99,,2013-02-16 05:52:00,
2013-02-16 01:00:00,43.0,43.0,29.93,NW,320,13.0,-999.0,98,-99.99,,,-99.99,,2013-02-16 06:00:00,
2013-02-16 01:32:00,43.0,43.0,29.93,NW,320,13.0,-999.0,98,-99.99,,,-99.99,,2013-02-16 06:32:00,
2013-02-16 01:41:00,43.0,43.0,29.93,NW,320,13.0,-999.0,98,-99.99,,,-99.99,,2013-02-16 06:41:00,
2013-02-16 01:51:00,43.0,43.0,29.93,NW,320,13.0,-999.0,98,-99.99,,,-99.99,,2013-02-16 06:51:00,
2013-02-16 02:00:00,41.0,41.0,29.92,NW,320,13.0,-999.0,99,-99.99,,,-99.99,,2013-02-16 07:00:00,
2013-02-16 02:11:00,41.0,41.0,29.92,NW,320,13.0,-999.0,99,-99.99,,,-99.99,,2013-02-16 07:11:00,
2013-02-16 02:21:00,41.0,41.0,29.92,NW,320,13.0,-999.0,99,-99.99,,,-99.99,,2013-02-16 07:21:00,
2013-02-16 02:31:00,41.0,41.0,29.92,NW,320,13.0,-999.0,99,-99.99,,,-99.99,,2013-02-16 07:31:00,
2013-02-16 02:41:00,41.0,41.0,29.92,NW,320,13.0,-999.0,99,-99.99,,,-99.99,,2013-02-16 07:41:00,
2013-02-16 02:52:00,41.0,41.0,29.92,NW,320,13.0,-999.0,99,-99.99,,,-99.99,,2013-02-16 07:52:00,
2013-02-16 03:00:00,41.0,41.0,29.90,NW,320,13.0,-999.0,100,-99.99,,,-99.99,,2013-02-16 08:00:00,
2013-02-16 03:11:00,41.0,41.0,29.90,NW,320,13.0,-999.0,100,-99.99,,,-99.99,,2013-02-16 08:11:00,
2013-02-16 03:21:00,41.0,41.0,29.90,NW,320,13.0,-999.0,100,-99.99,,,-99.99,,2013-02-16 08:21:00,
2013-02-16 03:31:00,41.0,41.0,29.90,NW,320,13.0,-999.0,100,-99.99,,,-99.99,,2013-02-16 08:31:00,
2013-02-16 03:41:00,41.0,41.0,29.90,NW,320,13.0,-999.0,100,-99.99,,,-99.99,,2013-02-16 08:41:00,
2013-02-16 03:52:00,41.0,41.0,29.90,NW,320,13.0,-999.0,100,-99.99,,,-99.99,,2013-02-16 08:52:00,
2013-02-16 04:00:00,40.0,40.0,29.89,NW,320,13.0,-999.0,100,-99.99,,,-99.99,,2013-02-16 09:00:00,
2013-02-16 04:11:00,40.0,40.0,29.89,NW,320,13.0,-999.0,100,-99.99,,,-99.99,,2013-02-16 09:11:00,
2013-02-16 04:21:00,40.0,40.0,29.89,NW,320,13.0,-999.0,100,-99.99,,,-99.99,,2013-02-16 09:21:00,
2013-02-16 04:31:00,40.0,40.0,29.89,NW,320,13.0,-999.0,100,-99.99,,,-99.99,,2013-02-16 09:31:00,
2013-02-16 04:42:00,40.0,40.0,29.89,NW,320,13.0,-999.0,100,-99.99,,,-99.99,,2013-02-16 09:42:00,
2013-02-16 04:51:00,40.0,40.0,29.89,NW,320,13.0,-999.0,100,-99.99,,,-99.99,,2013-02-16 09:51:00,
2013-02-16 05:00:00,41.0,-99.9,29.89,NW,320,13.0,-999.0,-999,-99.99,,,-99.99,,2013-02-16 10:00:00,
2013-02-16 05:11:00,41.0,-99.9,29.89,NW,320,13.0,-999.0,-999,-99.99,,,-99.99,,2013-02-16 10:11:00,
2013-02-16 05:22:00,41.0,-99.9,29.89,NW,320,13.0,-999.0,-999,-99.99,,,-99.99,,2013-02-16 10:22:00,
2013-02-16 05:32:00,41.0,-99.9,29.89,NW,320,13.0,-999.0,-999,-99.99,,,-99.99,,2013-02-16 10:32:00,
2013-02-16 05:42:00,41.0,-99.9,29.89,NW,320,13.0,-999.0,-999,-99.99,,,-99.99,,2013-02-16 10:42:00,
2013-02-16 05:52:00,41.0,-99.9,29.89,NW,320,13.0,-999.0,-999,-99.99,,,-99.99,,2013-02-16 10:52:00,
2013-02-16 06:00:00,41.0,38.0,29.90,NW,320,13.0,-999.0,90,-99.99,,,-99.99,,2013-02-16 11:00:00,
2013-02-16 06:22:00,41.0,38.0,29.90,NW,320,13.0,-999.0,90,-99.99,,,-99.99,,2013-02-16 11:22:00,
2013-02-16 06:31:00,41.0,38.0,29.90,NW,320,13.0,-999.0,90,-99.99,,,-99.99,,2013-02-16 11:31:00,
2013-02-16 06:42:00,41.0,38.0,29.90,NW,320,13.0,-999.0,90,-99.99,,,-99.99,,2013-02-16 11:42:00,
2013-02-16 06:52:00,41.0,38.0,29.90,NW,320,13.0,-999.0,90,-99.99,,,-99.99,,2013-02-16 11:52:00,
2013-02-16 07:00:00,41.0,36.0,29.91,NW,320,13.0,-999.0,85,-99.99,,,-99.99,,2013-02-16 12:00:00,
2013-02-16 07:12:00,41.0,36.0,29.91,NW,320,13.0,-999.0,85,-99.99,,,-99.99,,2013-02-16 12:12:00,
2013-02-16 07:21:00,41.0,36.0,29.91,NW,320,13.0,-999.0,85,-99.99,,,-99.99,,2013-02-16 12:21:00,
2013-02-16 07:32:00,41.0,36.0,29.91,NW,320,13.0,-999.0,85,-99.99,,,-99.99,,2013-02-16 12:32:00,
2013-02-16 07:42:00,41.0,36.0,29.91,NW,320,13.0,-999.0,85,-99.99,,,-99.99,,2013-02-16 12:42:00,
2013-02-16 07:52:00,41.0,36.0,29.91,NW,320,13.0,-999.0,85,-99.99,,,-99.99,,2013-02-16 12:52:00,
2013-02-16 08:00:00,40.0,37.0,29.93,NW,320,13.0,-999.0,86,-99.99,,,-99.99,,2013-02-16 13:00:00,
2013-02-16 08:21:00,40.0,37.0,29.93,NW,320,13.0,-999.0,86,-99.99,,,-99.99,,2013-02-16 13:21:00,
2013-02-16 08:31:00,40.0,37.0,29.93,NW,320,13.0,-999.0,86,-99.99,,,-99.99,,2013-02-16 13:31:00,
2013-02-16 08:41:00,40.0,37.0,29.93,NW,320,13.0,-999.0,86,-99.99,,,-99.99,,2013-02-16 13:41:00,
2013-02-16 08:51:00,40.0,37.0,29.93,NW,320,13.0,-999.0,86,-99.99,,,-99.99,,2013-02-16 13:51:00,
2013-02-16 09:00:00,40.0,36.0,29.92,NW,320,13.0,-999.0,86,-99.99,,,-99.99,,2013-02-16 14:00:00,
2013-02-16 09:21:00,40.0,36.0,29.92,NW,320,13.0,-999.0,86,-99.99,,,-99.99,,2013-02-16 14:21:00,
2013-02-16 09:32:00,40.0,36.0,29.92,NW,320,13.0,-999.0,86,-99.99,,,-99.99,,2013-02-16 14:32:00,
2013-02-16 09:41:00,40.0,36.0,29.92,NW,320,13.0,-999.0,86,-99.99,,,-99.99,,2013-02-16 14:41:00,
2013-02-16 09:51:00,40.0,36.0,29.92,NW,320,13.0,-999.0,86,-99.99,,,-99.99,,2013-02-16 14:51:00,
2013-02-16 10:00:00,40.0,37.0,29.91,NW,320,13.0,-999.0,90,-99.99,,,-99.99,,2013-02-16 15:00:00,
2013-02-16 10:41:00,40.0,37.0,29.91,NW,320,13.0,-999.0,90,-99.99,,,-99.99,,2013-02-16 15:41:00,
2013-02-16 10:51:00,40.0,37.0,29.91,NW,320,13.0,-999.0,90,-99.99,,,-99.99,,2013-02-16 15:51:00,
2013-02-16 11:00:00,39.0,37.0,29.90,NW,320,13.0,-999.0,91,-99.99,,,-99.99,,2013-02-16 16:00:00,
2013-02-16 11:21:00,39.0,37.0,29.90,NW,320,13.0,-999.0,91,-99.99,,,-99.99,,2013-02-16 16:21:00,
2013-02-16 11:32:00,39.0,37.0,29.90,NW,320,13.0,-999.0,91,-99.99,,,-99.99,,2013-02-16 16:32:00,
2013-02-16 11:41:00,39.0,37.0,29.90,NW,320,13.0,-999.0,91,-99.99,,,-99.99,,2013-02-16 16:41:00,
2013-02-16 11:51:00,39.0,37.0,29.90,NW,320,13.0,-999.0,91,-99.99,,,-99.99,,2013-02-16 16:51:00,
2013-02-16 12:00:00,40.0,36.0,29.88,NW,320,13.0,-999.0,86,-99.99,,,-99.99,,2013-02-16 17:00:00,
2013-02-16 12:21:00,40.0,36.0,29.88,NW,320,13.0,-999.0,86,-99.99,,,-99.99,,2013-02-16 17:21:00,
2013-02-16 12:31:00,40.0,36.0,29.88,NW,320,13.0,-999.0,86,-99.99,,,-99.99,,2013-02-16 17:31:00,
2013-02-16 12:41:00,40.0,36.0,29.88,NW,320,13.0,-999.0,86,-99.99,,,-99.99,,2013-02-16 17:41:00,
2013-02-16 12:51:00,40.0,36.0,29.88,NW,320,13.0,-999.0,86,-99.99,,,-99.99,,2013-02-16 17:51:00,
2013-02-16 13:00:00,40.0,37.0,29.86,NW,320,13.0,-999.0,86,-99.99,,,-99.99,,2013-02-16 18:00:00,
2013-02-16 13:11:00,40.0,37.0,29.86,NW,320,13.0,-999.0,86,-99.99,,,-99.99,,2013-02-16 18:11:00,
2013-02-16 13:21:00,40.0,37.0,29.86,NW,320,13.0,-999.0,86,-99.99,,,-99.99,,2013-02-16 18:21:00,
2013-02-16 13:32:00,40.0,37.0,29.86,NW,320,13.0,-999.0,86,-99.99,,,-99.99,,2013-02-16 18:32:00,
2013-02-16 13:41:00,40.0,37.0,29.86,NW,320,13.0,-999.0,86,-99.99,,,-99.99,,2013-02-16 18:41:00,
2013-02-16 13:51:00,40.0,37.0,29.86,NW,320,13.0,-999.0,86,-99.99,,,-99.99,,2013-02-16 18:51:00,
2013-02-16 14:00:00,40.0,38.0,29.84,NW,320,13.0,-999.0,91,-99.99,,,-99.99,,2013-02-16 19:00:00,
2013-02-16 14:21:00,40.0,38.0,29.84,NW,320,13.0,-999.0,91,-99.99,,,-99.99,,2013-02-16 19:21:00,
2013-02-16 14:31:00,40.0,38.0,29.84,NW,320,13.0,-999.0,91,-99.99,,,-99.99,,2013-02-16 19:31:00,
2013-02-16 14:42:00,40.0,38.0,29.84,NW,320,13.0,-999.0,91,-99.99,,,-99.99,,2013-02-16 19:42:00,
2013-02-16 14:52:00,40.0,38.0,29.84,NW,320,13.0,-999.0,91,-99.99,,,-99.99,,2013-02-16 19:52:00,
2013-02-16 15:00:00,40.0,39.0,29.83,NW,320,13.0,-999.0,95,-99.99,,,-99.99,,2013-02-16 20:00:00,
2013-02-16 15:21:00,40.0,39.0,29.83,NW,320,13.0,-999.0,95,-99.99,,,-99.99,,2013-02-16 20:21:00,
2013-02-16 15:31:00,40.0,39.0,29.83,NW,320,13.0,-999.0,95,-99.99,,,-99.99,,2013-02-16 20:31:00,
2013-02-16 15:42:00,40.0,39.0,29.83,NW,320,13.0,-999.0,95,-99.99,,,-99.99,,2013-02-16 20:42:00,
2013-02-16 15:52:00,40.0,39.0,29.83,NW,320,13.0,-999.0,95,-99.99,,,-99.99,,2013-02-16 20:52:00,
2013-02-16 16:00:00,39.0,38.0,29.82,NW,320,13.0,-999.0,95,-99.99,,,-99.99,,2013-02-16 21:00:00,
2013-02-16 16:21:00,39.0,38.0,29.82,NW,320,13.0,-999.0,95,-99.99,,,-99.99,,2013-02-16 21:21:00,
2013-02-16 16:31:00,39.0,38.0,29.82,NW,320,13.0,-999.0,95,-99.99,,,-99.99,,2013-02-16 21:31:00,
2013-02-16 16:41:00,39.0,38.0,29.82,NW,320,13.0,-999.0,95,-99.99,,,-99.99,,2013-02-16 21:41:00,
2013-02-16 16:51:00,39.0,38.0,29.82,NW,320,13.0,-999.0,95,-99.99,,,-99.99,,2013-02-16 21:51:00,
2013-02-16 17:00:00,39.0,38.0,29.80,NW,320,13.0,-999.0,97,-99.99,,,-99.99,,2013-02-16 22:00:00,
2013-02-16 17:21:00,39.0,38.0,29.80,NW,320,13.0,-999.0,97,-99.99,,,-99.99,,2013-02-16 22:21:00,
2013-02-16 17:31:00,39.0,38.0,29.80,NW,320,13.0,-999.0,97,-99.99,,,-99.99,,2013-02-16 22:31:00,
2013-02-16 17:42:00,39.0,38.0,29.80,NW,320,13.0,-999.0,97,-99.99,,,-99.99,,2013-02-16 22:42:00,
2013-02-16 17:51:00,39.0,38.0,29.80,NW,320,13.0,-999.0,97,-99.99,,,-99.99,,2013-02-16 22:51:00,
2013-02-16 18:00:00,39.0,38.0,29.81,NW,320,13.0,-999.0,93,-99.99,,,-99.99,,2013-02-16 23:00:00,
2013-02-16 18:11:00,39.0,38.0,29.81,NW,320,13.0,-999.0,93,-99.99,,,-99.99,,2013-02-16 23:11:00,
2013-02-16 18:21:00,39.0,38.0,29.81,NW,320,13.0,-999.0,93,-99.99,,,-99.99,,2013-02-16 23:21:00,
2013-02-16 18:31:00,39.0,38.0,29.81,NW,320,13.0,-999.0,93,-99.99,,,-99.99,,2013-02-16 23:31:00,
2013-02-16 18:41:00,39.0,38.0,29.81,NW,320,13.0,-999.0,93,-99.99,,,-99.99,,2013-02-16 23:41:00,
2013-02-16 18:52:00,39.0,38.0,29.81,NW,320,13.0,-999.0,93,-99.99,,,-99.99,,2013-02-16 23:52:00,
2013-02-16 19:00:00,38.0,38.0,29.80,NW,320,13.0,-999.0,100,-99.99,,,-99.99,,2013-02-17 00:00:00,
2013-02-16 19:21:00,38.0,38.0,29.80,NW,320,13.0,-999.0,100,-99.99,,,-99.99,,2013-02-17 00:21:00,
2013-02-16 19:31:00,38.0,38.0,29.80,NW,320,13.0,-999.0,100,-99.99,,,-99.99,,2013-02-17 00:31:00,
2013-02-16 19:41:00,38.0,38.0,29.80,NW,320,13.0,-999.0,100,-99.99,,,-99.99,,2013-02-17 00:41:00,
2013-02-16 19:51:00,38.0,38.0,29.80,NW,320,13.0,-999.0,100,-99.99,,,-99.99,,2013-02-17 00:51:00,
2013-02-16 20:00:00,38.0,38.0,29.78,NW,320,13.0,-999.0,98,-99.99,,,-99.99,,2013-02-17 01:00:00,
2013-02-16 20:11:00,38.0,38.0,29.78,NW,320,13.0,-999.0,98,-99.99,,,-99.99,,2013-02-17 01:11:00,
2013-02-16 20:21:00,38.0,38.0,29.78,NW,320,13.0,-999.0,98,-99.99,,,-99.99,,2013-02-17 01:21:00,
2013-02-16 20:31:00,38.0,38.0,29.78,NW,320,13.0,-999.0,98,-99.99,,,-99.99,,2013-02-17 01:31:00,
2013-02-16 20:41:00,38.0,38.0,29.78,NW,320,13.0,-999.0,98,-99.99,,,-99.99,,2013-02-17 01:41:00,
2013-02-16 20:52:00,38.0,38.0,29.78,NW,320,13.0,-999.0,98,-99.99,,,-99.99,,2013-02-17 01:52:00,
2013-02-16 21:00:00,38.0,38.0,29.77,NW,320,13.0,-999.0,97,-99.99,,,-99.99,,2013-02-17 02:00:00,
2013-02-16 21:11:00,38.0,38.0,29.77,NW,320,13.0,-999.0,97,-99.99,,,-99.99,,2013-02-17 02:11:00,
2013-02-16 21:21:00,38.0,38.0,29.77,NW,320,13.0,-999.0,97,-99.99,,,-99.99,,2013-02-17 02:21:00,
2013-02-16 21:31:00,38.0,38.0,29.77,NW,320,13.0,-999.0,97,-99.99,,,-99.99,,2013-02-17 02:31:00,
2013-02-16 21:41:00,38.0,38.0,29.77,NW,320,13.0,-999.0,97,-99.99,,,-99.99,,2013-02-17 02:41:00,
2013-02-16 21:51:00,38.0,38.0,29.77,NW,320,13.0,-999.0,97,-99.99,,,-99.99,,2013-02-17 02:51:00,
2013-02-16 22:00:00,38.0,35.0,29.73,NW,320,13.0,-999.0,89,-99.99,,,-99.99,,2013-02-17 03:00:00,
2013-02-16 22:41:00,38.0,35.0,29.73,NW,320,13.0,-999.0,89,-99.99,,,-99.99,,2013-02-17 03:41:00,
2013-02-16 22:51:00,38.0,35.0,29.73,NW,320,13.0,-999.0,89,-99.99,,,-99.99,,2013-02-17 03:51:00,
2013-02-16 23:00:00,38.0,30.0,29.68,NW,320,13.0,-999.0,71,-99.99,,,-99.99,,2013-02-17 04:00:00,
2013-02-16 23:41:00,38.0,30.0,29.68,NW,320,13.0,-999.0,71,-99.99,,,-99.99,,2013-02-17 04:41:00,
2013-02-16 23:51:00,38.0,30.0,29.68,NW,320,13.0,-999.0,71,-99.99,,,-99.99,,2013-02-17 04:51:00,